Latest Weather Observations for Mount Ginini

IDN60801

Issued at 6:35 pm EST Wednesday 27 August 2014 (issued every 30 minutes, with the page automatically refreshed every 10 minutes)

About weather observations | Map of weather stations | Latest weather observations for NSW | Other Formats
Station Details ID: 070349 Name: MOUNT GININI AWS Lat: -35.53 Lon: 148.77 Height: 1760.0 m
Data from the previous 72 hours. | See also: Recent months at Mount Ginini
Date/Time
EST
Temp
°C
App
Temp
°C
Dew
Point
Rel
Hum
%
Delta-T
°C
Wind Press
QNH
hPa
Press
MSL
hPa
Rain
since 9 am
mm
Dir
 
Spd
km/h
Gust
km/h
Spd
kts
Gust
kts
27/06:30pm 0.7 -2.4 0.0 95 0.3 ESE 6 17 3 9 - - 0.0
27/06:00pm 1.1 -2.0 0.2 94 0.4 ESE 6 15 3 8 - - 0.0
27/05:30pm 1.7 -1.3 0.7 93 0.4 ESE 6 19 3 10 - - 0.0
27/05:00pm 2.9 -0.4 -1.3 74 1.7 E 6 13 3 7 - - 0.0
27/04:30pm 3.4 0.0 -1.9 68 2.1 ESE 6 15 3 8 - - 0.0
27/04:00pm 3.3 -0.3 -2.0 68 2.1 E 7 22 4 12 - - 0.0
27/03:30pm 3.6 -0.4 -2.3 65 2.4 E 9 24 5 13 - - 0.0
27/03:00pm 3.7 0.3 -1.8 67 2.2 E 6 17 3 9 - - 0.0
27/02:30pm 4.0 0.4 -1.8 66 2.4 ESE 7 20 4 11 - - 0.0
27/02:00pm 3.4 0.1 -1.5 70 2.0 ESE 6 17 3 9 - - 0.0
27/01:30pm 3.5 -0.7 -0.9 73 1.8 E 11 26 6 14 - - 0.0
27/01:00pm 4.6 1.4 0.6 75 1.7 ESE 7 20 4 11 - - 0.0
27/12:30pm 4.2 -0.4 1.7 84 1.1 E 15 28 8 15 - - 0.0
27/12:00pm 3.5 -0.5 2.6 94 0.4 E 13 24 7 13 - - 0.0
27/11:30am 3.7 -0.3 3.1 96 0.3 E 13 24 7 13 - - 0.0
27/11:00am 2.6 -1.9 2.3 98 0.1 E 15 30 8 16 - - 0.0
27/10:30am 2.0 -3.3 1.7 98 0.1 E 19 32 10 17 - - 0.0
27/10:00am 1.2 -4.5 0.8 97 0.2 E 20 32 11 17 - - 0.0
27/09:30am 0.1 -5.2 -0.3 97 0.2 E 17 33 9 18 - - 0.0
27/09:00am -0.1 -5.8 -0.5 97 0.2 E 19 32 10 17 - - 0.6
27/08:30am -0.1 -6.0 -0.5 97 0.2 E 20 35 11 19 - - 0.6
27/08:00am -0.3 -6.2 -0.7 97 0.1 E 20 35 11 19 - - 0.6
27/07:30am -0.7 -7.0 -1.1 97 0.1 ESE 22 41 12 22 - - 0.6
27/07:00am -1.0 -6.8 -1.4 97 0.1 E 19 33 10 18 - - 0.6
27/06:30am -0.9 -6.7 -1.3 97 0.1 E 19 35 10 19 - - 0.6
27/06:00am -0.9 -6.7 -1.3 97 0.1 ESE 19 35 10 19 - - 0.6
27/05:30am -0.9 -6.9 -1.3 97 0.1 E 20 37 11 20 - - 0.6
27/05:00am -0.7 -6.6 -1.1 97 0.1 ESE 20 35 11 19 - - 0.6
27/04:30am -1.2 -8.0 -1.6 97 0.1 ESE 24 43 13 23 - - 0.6
27/04:00am -0.8 -6.6 -1.2 97 0.1 ESE 19 39 10 21 - - 0.6
27/03:30am -0.6 -6.9 -1.0 97 0.1 ESE 22 43 12 23 - - 0.6
27/03:00am -0.6 -8.0 -1.0 97 0.1 E 28 46 15 25 - - 0.6
27/02:34am -0.8 -8.3 -1.2 97 0.1 E 28 46 15 25 - - 0.6
27/02:30am -0.8 -8.3 -1.2 97 0.1 E 28 41 15 22 - - 0.6
27/02:00am -0.5 -7.9 -0.9 97 0.1 E 28 50 15 27 - - 0.6
27/01:30am -0.3 -8.1 -0.7 97 0.1 E 30 50 16 27 - - 0.6
27/01:02am -0.3 -8.1 -0.7 97 0.1 E 30 48 16 26 - - 0.6
27/01:00am -0.3 -8.1 -0.7 97 0.1 E 30 46 16 25 - - 0.6
27/12:30am 0.0 -7.7 -0.4 97 0.2 E 30 48 16 26 - - 0.6
27/12:00am 0.3 -7.4 -0.1 97 0.2 E 30 48 16 26 - - 0.6
 
Date/Time
EST
Temp
°C
App
Temp
°C
Dew
Point
Rel
Hum
%
Delta-T
°C
Wind Press
QNH
hPa
Press
MSL
hPa
Rain
since 9 am
mm
Dir
 
Spd
km/h
Gust
km/h
Spd
kts
Gust
kts
26/11:30pm 0.9 -7.3 0.5 97 0.2 E 33 52 18 28 - - 0.6
26/11:00pm 1.1 -6.9 0.7 97 0.2 E 32 54 17 29 - - 0.6
26/10:30pm 1.3 -5.9 0.9 97 0.2 E 28 54 15 29 - - 0.6
26/10:02pm 1.5 -5.6 1.1 97 0.2 E 28 46 15 25 - - 0.6
26/10:00pm 1.5 -5.6 1.1 97 0.2 E 28 44 15 24 - - 0.6
26/09:30pm 1.4 -4.6 1.0 97 0.2 E 22 37 12 20 - - 0.6
26/09:00pm 1.3 -4.3 0.9 97 0.2 E 20 39 11 21 - - 0.6
26/08:30pm 1.5 -3.9 1.1 97 0.2 E 19 39 10 21 - - 0.6
26/08:00pm 1.4 -5.4 1.0 97 0.2 E 26 44 14 24 - - 0.6
26/07:30pm 1.6 -4.4 1.2 97 0.2 E 22 41 12 22 - - 0.4
26/07:00pm 1.6 -4.0 1.2 97 0.2 E 20 44 11 24 - - 0.4
26/06:30pm 1.7 -3.9 1.3 97 0.2 E 20 41 11 22 - - 0.4
26/06:00pm 1.7 -3.3 1.3 97 0.2 E 17 35 9 19 - - 0.4
26/05:30pm 1.8 -4.1 1.5 98 0.1 E 22 41 12 22 - - 0.4
26/05:00pm 2.0 -3.9 1.7 98 0.1 E 22 43 12 23 - - 0.2
26/04:30pm 2.1 -3.4 1.8 98 0.1 E 20 39 11 21 - - 0.0
26/04:00pm 2.1 -3.4 1.8 98 0.1 E 20 41 11 22 - - 0.0
26/03:30pm 2.1 -3.4 1.8 98 0.1 E 20 44 11 24 - - 0.0
26/03:00pm 2.2 -3.1 1.9 98 0.1 E 19 43 10 23 - - 0.0
26/02:30pm 2.3 -3.0 2.0 98 0.1 E 19 41 10 22 - - 0.0
26/02:00pm 2.2 -2.7 1.9 98 0.1 E 17 33 9 18 - - 0.0
26/01:34pm 2.2 -4.8 1.9 98 0.1 E 28 46 15 25 - - 0.0
26/01:30pm 2.1 -4.5 1.8 98 0.1 E 26 46 14 25 - - 0.0
26/01:00pm 2.1 -4.5 1.8 98 0.1 E 26 48 14 26 - - 0.0
26/12:30pm 2.1 -4.9 1.8 98 0.1 E 28 48 15 26 - - 0.0
26/12:21pm 2.0 -5.0 1.7 98 0.1 E 28 50 15 27 - - 0.0
26/12:00pm 2.1 -3.8 1.8 98 0.1 E 22 43 12 23 - - 0.0
26/11:30am 1.8 -5.3 1.5 98 0.1 E 28 48 15 26 - - 0.0
26/11:00am 1.6 -5.5 1.3 98 0.1 E 28 52 15 28 - - 0.0
26/10:30am 1.4 -6.1 1.1 98 0.1 E 30 56 16 30 - - 0.0
26/10:00am 1.4 -6.5 1.1 98 0.1 E 32 54 17 29 - - 0.0
26/09:30am 0.9 -6.7 0.6 98 0.1 E 30 54 16 29 - - 0.0
26/09:00am 0.7 -7.5 0.4 98 0.1 E 33 61 18 33 - - 13.8
26/08:30am 0.8 -6.4 0.5 98 0.1 E 28 54 15 29 - - 13.8
26/08:00am 0.9 -6.3 0.6 98 0.1 E 28 52 15 28 - - 13.8
26/07:30am 1.1 -6.1 0.8 98 0.1 E 28 50 15 27 - - 13.6
26/07:26am 1.2 -6.0 0.9 98 0.1 E 28 48 15 26 - - 13.6
26/07:00am 1.2 -5.2 0.9 98 0.1 E 24 46 13 25 - - 13.6
26/06:52am 1.2 -6.0 0.9 98 0.1 E 28 56 15 30 - - 13.6
26/06:30am 1.3 -5.5 1.0 98 0.1 E 26 50 14 27 - - 13.6
26/06:29am 1.3 -5.9 1.0 98 0.1 E 28 50 15 27 - - 13.6
26/06:00am 1.4 -5.0 1.1 98 0.1 E 24 44 13 24 - - 13.6
26/05:30am 1.2 -5.2 0.9 98 0.1 E 24 44 13 24 - - 13.6
26/05:00am 0.9 -5.6 0.6 98 0.1 E 24 43 13 23 - - 13.6
26/04:30am 0.7 -5.4 0.4 98 0.1 E 22 39 12 21 - - 13.6
26/04:00am 0.4 -6.5 0.1 98 0.1 E 26 50 14 27 - - 13.2
26/03:30am 0.4 -6.5 0.1 98 0.1 E 26 43 14 23 - - 12.6
26/03:06am 0.4 -6.9 0.1 98 0.1 E 28 48 15 26 - - 12.6
26/03:00am 0.4 -6.5 0.1 98 0.1 ESE 26 48 14 26 - - 12.6
26/02:30am 0.2 -6.4 -0.1 98 0.1 E 24 43 13 23 - - 12.4
26/02:09am 0.1 -7.2 -0.2 98 0.1 E 28 48 15 26 - - 12.2
26/02:00am 0.1 -6.5 -0.2 98 0.1 E 24 44 13 24 - - 12.0
26/01:30am 0.0 -6.6 -0.3 98 0.1 E 24 52 13 28 - - 12.0
26/01:00am 0.1 -7.2 -0.2 98 0.1 E 28 50 15 27 - - 11.4
26/12:59am 0.1 -7.2 -0.2 98 0.1 E 28 50 15 27 - - 11.4
26/12:30am 0.2 -5.6 -0.1 98 0.1 ESE 20 37 11 20 - - 11.2
26/12:00am 0.1 -6.5 -0.2 98 0.1 E 24 44 13 24 - - 11.0
 
Date/Time
EST
Temp
°C
App
Temp
°C
Dew
Point
Rel
Hum
%
Delta-T
°C
Wind Press
QNH
hPa
Press
MSL
hPa
Rain
since 9 am
mm
Dir
 
Spd
km/h
Gust
km/h
Spd
kts
Gust
kts
25/11:30pm 0.2 -6.4 -0.1 98 0.1 E 24 39 13 21 - - 10.8
25/11:00pm 0.0 -6.6 -0.3 98 0.1 E 24 39 13 21 - - 10.8
25/10:30pm -0.4 -5.7 -0.7 98 0.1 ESE 17 35 9 19 - - 9.6
25/10:00pm -0.6 -5.9 -0.9 98 0.1 E 17 30 9 16 - - 8.8
25/09:30pm -0.9 -6.7 -1.2 98 0.1 E 19 35 10 19 - - 7.8
25/09:00pm -0.7 -5.7 -1.0 98 0.1 ESE 15 32 8 17 - - 7.0
25/08:30pm -0.2 -5.1 -0.5 98 0.1 E 15 32 8 17 - - 6.0
25/08:00pm 0.0 -3.7 -0.3 98 0.1 E 9 19 5 10 - - 4.6
25/07:30pm -0.2 -4.7 -0.5 98 0.1 E 13 20 7 11 - - 3.6
25/07:00pm -0.1 -5.0 -0.5 97 0.2 E 15 26 8 14 - - 2.4
25/06:30pm 0.0 -5.3 -0.6 96 0.2 E 17 26 9 14 - - 1.4
25/06:00pm 0.6 -5.0 -0.1 95 0.3 E 19 41 10 22 - - 0.4
25/05:30pm 2.3 -2.4 1.1 92 0.5 ENE 15 24 8 13 - - 0.0
25/05:00pm 3.8 -0.3 -3.0 61 2.7 E 9 19 5 10 - - 0.0
25/04:30pm 4.3 0.5 -3.9 55 3.2 ENE 7 13 4 7 - - 0.0
25/04:00pm 4.8 1.1 -4.7 50 3.6 E 6 15 3 8 - - 0.0
25/03:30pm 5.1 1.9 -3.9 52 3.5 E 4 9 2 5 - - 0.0
25/03:00pm 4.5 1.0 -3.0 58 3.0 NE 6 11 3 6 - - 0.0
25/02:30pm 3.6 0.1 -2.6 64 2.5 NE 6 15 3 8 - - 0.0
25/02:00pm 3.7 -0.2 -1.4 69 2.1 ENE 9 17 5 9 - - 0.0
25/01:30pm 4.2 0.6 0.7 78 1.5 NE 9 17 5 9 - - 0.0
25/01:00pm 4.1 1.0 -0.1 74 1.8 ENE 6 13 3 7 - - 0.0
25/12:30pm 4.7 1.3 -1.7 63 2.6 N 6 13 3 7 - - 0.0
25/12:00pm 6.0 2.6 -2.1 56 3.3 W 6 11 3 6 - - 0.0
25/11:30am 4.9 2.0 -1.3 64 2.6 NNW 4 9 2 5 - - 0.0
25/11:00am 5.4 2.3 -2.4 57 3.2 NNW 4 11 2 6 - - 0.0
25/10:30am 6.1 3.1 -2.2 55 3.4 N 4 15 2 8 - - 0.0
25/10:00am 4.9 1.4 -6.3 44 4.1 N 4 9 2 5 - - 0.0
25/09:30am 3.8 0.5 -4.4 55 3.1 NNE 4 9 2 5 - - 0.0
25/09:00am 2.5 -1.4 -6.6 51 3.4 N 6 11 3 6 - - 2.8
25/08:30am 1.7 -2.0 -8.7 46 3.5 NW 4 9 2 5 - - 2.8
25/08:00am 1.4 -3.7 -9.5 44 3.6 WNW 11 17 6 9 - - 2.8
25/07:30am 1.0 -4.1 -9.9 44 3.5 NW 11 17 6 9 - - 2.8
25/07:00am -0.3 -5.5 -10.5 46 3.1 NW 11 13 6 7 - - 2.8
25/06:30am -0.4 -5.2 -10.0 48 3.0 W 9 13 5 7 - - 2.8
25/06:00am -0.6 -5.1 -3.1 83 0.9 W 11 17 6 9 - - 2.8
25/05:30am -1.0 -4.9 -1.4 97 0.1 WNW 9 11 5 6 - - 2.8
25/05:00am -0.9 -4.8 -1.2 98 0.1 W 9 15 5 8 - - 2.8
25/04:30am -0.8 -4.6 -1.1 98 0.1 WNW 9 15 5 8 - - 2.8
25/04:00am -0.3 -3.7 -0.6 98 0.1 WSW 7 11 4 6 - - 2.8
25/03:30am 0.3 -3.4 0.0 98 0.1 WSW 9 19 5 10 - - 2.8
25/03:00am 0.5 -3.5 0.2 98 0.1 W 11 19 6 10 - - 2.8
25/02:30am 1.0 -3.0 0.7 98 0.1 W 11 22 6 12 - - 2.8
25/02:00am 1.4 -2.9 1.1 98 0.1 W 13 22 7 12 - - 2.8
25/01:30am 1.7 -2.9 1.6 99 0.0 W 15 28 8 15 - - 2.8
25/01:00am 1.8 -2.8 1.7 99 0.0 WNW 15 24 8 13 - - 2.8
25/12:30am 1.9 -2.7 1.8 99 0.0 W 15 24 8 13 - - 2.8
25/12:00am 1.8 -2.4 1.5 98 0.1 W 13 20 7 11 - - 2.8
 
Date/Time
EST
Temp
°C
App
Temp
°C
Dew
Point
Rel
Hum
%
Delta-T
°C
Wind Press
QNH
hPa
Press
MSL
hPa
Rain
since 9 am
mm
Dir
 
Spd
km/h
Gust
km/h
Spd
kts
Gust
kts
24/11:30pm 1.7 -2.2 1.4 98 0.1 W 11 20 6 11 - - 2.8
24/11:00pm 1.5 -2.4 1.2 98 0.1 WNW 11 19 6 10 - - 2.8
24/10:30pm 1.6 -2.3 1.3 98 0.1 WNW 11 19 6 10 - - 2.6
24/10:00pm 1.3 -2.2 1.0 98 0.1 WNW 9 15 5 8 - - 2.6
24/09:30pm 0.8 -4.3 0.5 98 0.1 NW 17 28 9 15 - - 2.0
24/09:00pm 1.8 -3.8 1.4 97 0.2 NW 20 37 11 20 - - 0.0
24/08:30pm 2.7 -2.2 2.3 97 0.2 WNW 17 24 9 13 - - 0.0
24/08:00pm 2.0 -1.9 1.4 96 0.3 WNW 11 19 6 10 - - 0.0
24/07:30pm 2.3 -1.9 1.6 95 0.3 NW 13 19 7 10 - - 0.0
24/07:00pm 2.2 -2.1 1.3 94 0.4 WNW 13 19 7 10 - - 0.0

Other Formats:

Comma delimited format used in spreadsheet applications
http://www.bom.gov.au/fwo/IDN60801/IDN60801.95925.axf

JavaScript Object Notation format (JSON) in row-major order
http://www.bom.gov.au/fwo/IDN60801/IDN60801.95925.json